This is the latest recevied weather packets stored in our database for station/object 9W2SHB-13. If no packets are shown the sender has not sent any weather packets the latest 10 day(s).
| Time | Temp. | Humidity | Pressure | Rain* | Wind** | Luminosity | Snow |
|---|---|---|---|---|---|---|---|
| 1777904107 | 30° C | 66% | 1029.6 hPa | - | - | - | - |
| 1777900507 | 30.56° C | 66% | 1029 hPa | - | - | - | - |
| 1777897807 | 30.56° C | 65% | 1028.2 hPa | - | - | - | - |
| 1777896907 | 30° C | 66% | 1028.1 hPa | - | - | - | - |
| 1777894207 | 30.56° C | 65% | 1027.2 hPa | - | - | - | - |
| 1777893307 | 30.56° C | 65% | 1027.3 hPa | - | - | - | - |
| 1777890607 | 30.56° C | 65% | 1026.6 hPa | - | - | - | - |
| 1777889707 | 30.56° C | 66% | 1026.5 hPa | - | - | - | - |
| 1777887907 | 30.56° C | 65% | 1026.4 hPa | - | - | - | - |
| 1777887007 | 31.11° C | 64% | 1026.4 hPa | - | - | - | - |
| 1777886107 | 30.56° C | 64% | 1026.9 hPa | - | - | - | - |
| 1777885207 | 30.56° C | 64% | 1027.3 hPa | - | - | - | - |
| 1777883407 | 30.56° C | 65% | 1028.1 hPa | - | - | - | - |
| 1777882507 | 30.56° C | 65% | 1028 hPa | - | - | - | - |
| 1777881607 | 30.56° C | 65% | 1028.1 hPa | - | - | - | - |
| 1777879807 | 31.11° C | 66% | 1028.4 hPa | - | - | - | - |
| 1777878907 | 31.11° C | 66% | 1028.6 hPa | - | - | - | - |
| 1777878007 | 31.11° C | 66% | 1028.2 hPa | - | - | - | - |
| 1777877107 | 31.11° C | 66% | 1028.8 hPa | - | - | - | - |
| 1777876207 | 31.67° C | 66% | 1029.1 hPa | - | - | - | - |
| 1777875306 | 31.67° C | 65% | 1029.1 hPa | - | - | - | - |
| 1777874407 | 31.67° C | 64% | 1029.2 hPa | - | - | - | - |
| 1777873507 | 31.67° C | 62% | 1029.2 hPa | - | - | - | - |
| 1777872607 | 32.22° C | 62% | 1029.3 hPa | - | - | - | - |
| 1777871707 | 32.22° C | 62% | 1029.4 hPa | - | - | - | - |
* Rain since midnight (hover to see other rain measurements)
** Current wind speed in m/s (hover to see current wind gust speed)